Погода в Ломовом

Россия / Орловская область     52°51′24″N   36°34′15″E
темп.,
°C
ветер,
м/с
пор.,
м/с
влажн.,
%
обл.,
%
осадки,
мм/ч
давл.,
гПа
погр.,
м
16 июня, ср
ср1600:00+17ссз338795 0.0 101132
03:00+15ссз369367 0.0 101196
06:00+16с379425 0.0 1011183
09:00+20с56817 0.0 1012536
12:00+23с566841 0.3 10121220
15:00+23с556210 0.4 10131582
18:00+22с57730 0.1 1014674
21:00+17ссв410900 0.1 1016233
17 июня, чт
чт1700:00+15ссв36930 0.0 1018111
03:00+14св410930 0.0 1018207
06:00+15св511840 0.0 1020318
09:00+18св610660 0.0 1021625
12:00+21св66560 0.0 10221040
15:00+22св67550 0.0 10221305
18:00+20св69680 0.0 1023915
21:00+16св37890 0.0 1024111
18 июня, пт
пт1800:00+14св49930 0.0 1025152
03:00+12всв410890 0.0 1026181
06:00+13всв39860 0.0 1026220
09:00+18всв58680 0.0 1026530
12:00+21в67600 0.0 10261179
15:00+22в57590 0.0 10261341
18:00+21в46710 0.0 10261079
21:00+16в35860 0.0 102670
19 июня, сб
сб1900:00+14в35925 0.0 102787
03:00+13в35925 0.0 102785
06:00+14в36894 0.0 1028167
09:00+19вюв46730 0.0 1028503
12:00+22вюв55630 0.0 10271146
15:00+23вюв45595 0.0 10261233
18:00+22вюв45700 0.0 1025946
21:00+17вюв34830 0.0 102556
20 июня, вс
вс2000:00+14вюв34870 0.0 102558
03:00+13вюв34910 0.0 102554
06:00+14вюв35880 0.0 1025141
09:00+20вюв45730 0.0 1025493
12:00+23юв45615 0.0 1024923
15:00+24вюв45575 0.0 10231046
18:00+23вюв357013 0.0 1022678
21:00+18в34855 0.0 102249